Weather History for KRHP - August, 2013

Change the Weather History Date:

Thursday, August 1, 2013

  Actual Average (KTYS) Record (KTYS)
Temperature  
Mean Temperature 73 °F 78 °F  
Max Temperature 82 °F 88 °F 97 °F (1935)
Min Temperature 63 °F 69 °F 56 °F (1895)
Degree Days  
Heating Degree Days 0 0  
Month to date heating degree days 0  
Since 1 June heating degree days 4  
Since 1 July heating degree days 0  
Cooling Degree Days 8 13  
Month to date cooling degree days 13  
Year to date cooling degree days 897  
Since 1 June cooling degree days 735  
Growing Degree Days 23 (Base 50)    
Moisture  
Dew Point 68 °F    
Average Humidity 86    
Maximum Humidity 99    
Minimum Humidity 58    
Precipitation  
Precipitation 0.00 in 0.12 in 1.31 in (1919)
Month to date precipitation 0.12  
Year to date precipitation 30.45  
Snow  
Snow 0.00 in 0.00 in - ()
Month to date snowfall 0.0  
Since 1 June snowfall 0.0  
Since 1 July snowfall 0.0  
Snow Depth -    
Sea Level Pressure  
Sea Level Pressure 30.02 in    
Wind  
Wind Speed 1 mph (NNE)    
Max Wind Speed 12 mph    
Max Gust Speed 20 mph    
Visibility 9 miles    
Events Rain    
T = Trace of Precipitation, MM = Missing Value Source: NWS Daily Summary

Daily Weather History Graph

Daily Weather History Graph

Search for Another Location

Airport or City:

Trip Planner

Search our weather history database for the weather conditions in past years. The results will help you decide how hot, cold, wet, or windy it might be!

Date:

Astronomy

Aug. 01, 2013 Rise Set
Actual Time 6:44 AM EDT 8:38 PM EDT
Civil Twilight 6:16 AM EDT 9:06 PM EDT
Nautical Twilight 5:42 AM EDT 9:39 PM EDT
Astronomical Twilight 5:06 AM EDT 10:15 PM EDT
Moon 2:21 AM EDT (8/1) 4:45 PM EDT (8/1)
Length of Visible Light 14h 49m
Length of Day
13h 53m
Waning Crescent, 23% of the Moon is Illuminated
Aug 1
Waning Crescent
Aug 6
New
Aug 14
First Quarter
Aug 20
Full
Aug 28
Last Quarter

Hourly Weather History & Observations

Time (EDT) Temp. Heat Index Dew Point Humidity Pressure Visibility Wind Dir Wind Speed Gust Speed Precip Events Conditions
12:15 AM 69.1 °F - 68.2 °F 97% 30.06 in 10.0 mi Calm Calm - N/A   Overcast
12:35 AM 68.9 °F - 68.4 °F 98% 30.06 in 7.0 mi Calm Calm - N/A   Overcast
12:55 AM 69.1 °F - 68.5 °F 98% 30.05 in 7.0 mi Calm Calm - N/A   Overcast
1:15 AM 68.9 °F - 68.5 °F 99% 30.04 in 7.0 mi Calm Calm - N/A   Overcast
1:35 AM 69.1 °F - 68.4 °F 98% 30.03 in 10.0 mi Calm Calm - N/A   Overcast
1:55 AM 68.9 °F - 68.0 °F 97% 30.03 in 10.0 mi Calm Calm - N/A   Overcast
2:15 AM 69.1 °F - 68.0 °F 96% 30.03 in 10.0 mi Calm Calm - N/A   Overcast
2:35 AM 68.9 °F - 68.2 °F 98% 30.03 in 7.0 mi Calm Calm - N/A   Overcast
2:55 AM 68.4 °F - 68.0 °F 99% 30.03 in 10.0 mi Calm Calm - N/A   Overcast
3:15 AM 68.2 °F - 68.0 °F 99% 30.03 in 7.0 mi Calm Calm - N/A   Overcast
3:35 AM 68.4 °F - 68.0 °F 99% 30.02 in 10.0 mi Calm Calm - N/A   Overcast
3:55 AM 68.4 °F - 68.0 °F 99% 30.01 in 7.0 mi Calm Calm - N/A   Overcast
4:15 AM 68.4 °F - 68.0 °F 99% 30.01 in 7.0 mi Calm Calm - N/A   Overcast
4:35 AM 68.4 °F - 68.2 °F 99% 30.01 in 7.0 mi Calm Calm - N/A   Overcast
4:55 AM 68.4 °F - 68.0 °F 99% 30.01 in 2.5 mi Calm Calm - N/A Rain Light Rain
5:15 AM 68.4 °F - 68.2 °F 99% 30.00 in 5.0 mi Calm Calm - N/A   Light Drizzle
5:35 AM 68.4 °F - 68.0 °F 99% 30.00 in 7.0 mi Calm Calm - N/A   Overcast
5:55 AM 68.5 °F - 68.0 °F 98% 30.01 in 5.0 mi Calm Calm - N/A Rain Light Rain
6:15 AM 68.4 °F - 68.2 °F 99% 30.03 in 7.0 mi Calm Calm - N/A   Overcast
6:35 AM 68.5 °F - 68.4 °F 99% 30.03 in 7.0 mi Calm Calm - N/A   Overcast
6:55 AM 68.9 °F - 68.4 °F 98% 30.03 in 7.0 mi Calm Calm - N/A   Overcast
7:15 AM 68.7 °F - 68.4 °F 99% 30.03 in 5.0 mi Calm Calm - N/A   Overcast
7:35 AM 68.5 °F - 68.4 °F 99% 30.03 in 5.0 mi Calm Calm - N/A   Overcast
7:55 AM 68.9 °F - 68.5 °F 99% 30.03 in 7.0 mi Calm Calm - N/A   Overcast
8:15 AM 69.3 °F - 68.4 °F 97% 30.03 in 7.0 mi Calm Calm - N/A   Overcast
8:35 AM 70.0 °F - 68.5 °F 95% 30.03 in 10.0 mi Calm Calm - N/A   Overcast
8:55 AM 70.2 °F - 68.5 °F 95% 30.03 in 10.0 mi Calm Calm - N/A   Overcast
9:15 AM 71.2 °F - 68.4 °F 91% 30.03 in 10.0 mi Calm Calm - N/A   Overcast
9:35 AM 71.6 °F - 68.0 °F 88% 30.02 in 10.0 mi Calm Calm - N/A   Overcast
9:55 AM 72.1 °F - 68.4 °F 88% 30.03 in 10.0 mi Calm Calm - N/A   Overcast
10:15 AM 72.7 °F - 68.5 °F 87% 30.03 in 10.0 mi Calm Calm - N/A   Overcast
10:35 AM 73.4 °F - 68.5 °F 85% 30.03 in 10.0 mi Calm Calm - N/A   Overcast
10:55 AM 73.6 °F - 68.9 °F 85% 30.03 in 10.0 mi Calm Calm - N/A   Overcast
11:15 AM 73.6 °F - 69.6 °F 87% 30.03 in 10.0 mi Calm Calm - N/A   Overcast
11:35 AM 73.9 °F - 69.3 °F 85% 30.03 in 10.0 mi Calm Calm - N/A   Overcast
11:55 AM 74.3 °F - 69.4 °F 85% 30.03 in 10.0 mi Calm Calm - N/A Rain Light Rain
12:15 PM 74.3 °F - 70.7 °F 88% 30.03 in 10.0 mi West 4.6 mph - N/A Rain Light Rain
12:35 PM 77.0 °F - 70.3 °F 80% 30.03 in 10.0 mi Calm Calm - N/A   Overcast
12:55 PM 78.1 °F - 69.4 °F 75% 30.02 in 10.0 mi Calm Calm - N/A   Scattered Clouds
1:15 PM 79.5 °F - 69.6 °F 72% 30.01 in 10.0 mi Calm Calm - N/A   Scattered Clouds
1:35 PM 81.0 °F 83.8 °F 68.4 °F 65% 30.00 in 10.0 mi Calm Calm - N/A   Mostly Cloudy
1:55 PM 82.2 °F 85.8 °F 69.3 °F 65% 29.99 in 10.0 mi Calm Calm - N/A   Mostly Cloudy
2:15 PM 80.4 °F 83.5 °F 69.6 °F 69% 30.00 in 10.0 mi West 3.5 mph - N/A   Mostly Cloudy
2:35 PM 74.5 °F - 71.1 °F 89% 29.99 in 4.0 mi Calm Calm - N/A Rain Light Rain
2:55 PM 78.4 °F - 71.6 °F 79% 29.99 in 10.0 mi South 3.5 mph - N/A   Mostly Cloudy
3:15 PM 78.4 °F - 71.1 °F 78% 29.98 in 10.0 mi Calm Calm - N/A   Mostly Cloudy
3:35 PM 80.8 °F 84.1 °F 69.8 °F 69% 29.97 in 10.0 mi Calm Calm - N/A   Scattered Clouds
3:55 PM 81.7 °F 84.9 °F 68.7 °F 65% 29.97 in 10.0 mi Calm Calm - N/A   Scattered Clouds
4:15 PM 80.8 °F 83.6 °F 68.4 °F 66% 29.97 in 10.0 mi NE 10.4 mph 17.3 mph N/A   Scattered Clouds
4:35 PM 81.5 °F 84.1 °F 67.3 °F 62% 29.97 in 10.0 mi NE 10.4 mph 17.3 mph N/A   Clear
4:55 PM 81.5 °F 83.7 °F 66.6 °F 60% 29.98 in 10.0 mi North 8.1 mph 16.1 mph N/A   Clear
5:15 PM 80.1 °F 82.2 °F 66.4 °F 63% 29.99 in 10.0 mi NE 11.5 mph 19.6 mph N/A   Clear
5:35 PM 80.6 °F 82.5 °F 65.7 °F 60% 29.99 in 10.0 mi NNE 6.9 mph - N/A   Scattered Clouds
5:55 PM 79.5 °F - 64.6 °F 60% 29.99 in 10.0 mi NE 6.9 mph - N/A   Scattered Clouds
6:15 PM 80.4 °F 82.2 °F 64.9 °F 59% 29.99 in 10.0 mi North 3.5 mph - N/A   Clear
6:35 PM 80.4 °F 82.1 °F 64.6 °F 58% 29.99 in 10.0 mi NNE 6.9 mph - N/A   Clear
6:55 PM 79.7 °F - 64.4 °F 59% 29.99 in 10.0 mi Calm Calm - N/A   Clear
7:15 PM 79.0 °F - 66.0 °F 64% 29.99 in 10.0 mi NNE 5.8 mph - N/A   Clear
7:35 PM 78.3 °F - 64.2 °F 62% 29.99 in 10.0 mi North 6.9 mph - N/A   Clear
7:55 PM 76.5 °F - 65.1 °F 68% 30.00 in 10.0 mi NNE 3.5 mph - N/A   Clear
8:15 PM 73.2 °F - 66.4 °F 79% 30.00 in 10.0 mi North 4.6 mph - N/A   Clear
8:35 PM 71.1 °F - 66.7 °F 86% 30.01 in 10.0 mi Calm Calm - N/A   Clear
8:55 PM 69.4 °F - 66.6 °F 91% 30.01 in 10.0 mi Calm Calm - N/A   Clear
9:15 PM 68.2 °F - 65.7 °F 92% 30.03 in 10.0 mi Calm Calm - N/A   Clear
9:35 PM 67.1 °F - 65.7 °F 95% 30.03 in 10.0 mi Calm Calm - N/A   Clear
9:55 PM 66.7 °F - 65.1 °F 95% 30.03 in 10.0 mi Calm Calm - N/A   Clear
10:15 PM 66.0 °F - 64.8 °F 96% 30.04 in 10.0 mi Calm Calm - N/A   Clear
10:35 PM 65.8 °F - 64.6 °F 96% 30.04 in 10.0 mi Calm Calm - N/A   Clear
10:55 PM 64.9 °F - 64.4 °F 98% 30.04 in 7.0 mi Calm Calm - N/A   Clear
11:15 PM 64.6 °F - 63.9 °F 98% 30.04 in 7.0 mi Calm Calm - N/A   Clear
11:35 PM 64.8 °F - 64.0 °F 98% 30.04 in 10.0 mi Calm Calm - N/A   Clear
11:55 PM 63.9 °F - 63.3 °F 98% 30.04 in 7.0 mi Calm Calm - N/A   Clear